Theta_e
308 308 309 310 310 310 310 310 310 311 311 311 311 312 313 314 316 316 318 323 323 323 323 324 326 326 327 326 326 327 322 323 323 316 315 316 315 317 318 318 318 318 318 317 317
308 308 308 309 309 309 310 310 310 311 311 310 310 311 312 313 314 316 317 319 323 323 323 323 326 326 325 324 325 323 321 323 320 314 315 316 315 317 318 317 316 317 317 316 316
308 308 308 308 308 309 309 310 310 310 311 311 310 310 311 313 314 316 317 318 319 323 322 323 324 323 322 323 323 321 323 320 322 320 318 316 315 317 317 317 317 317 316 315 315
307 308 308 308 308 308 309 309 309 310 310 311 311 310 311 311 314 322 321 322 318 322 322 322 322 322 319 319 323 322 322 322 322 322 317 315 316 318 318 319 319 318 317 316 315
307 307 308 308 308 308 308 309 309 309 310 310 311 311 310 310 313 318 323 321 321 321 323 322 323 322 320 320 321 321 320 319 319 318 318 318 317 317 318 319 319 317 316 315 315
307 308 308 307 307 308 308 308 308 309 309 310 311 311 310 311 314 314 315 317 318 322 323 323 323 324 322 322 321 323 319 318 317 317 317 316 317 318 319 319 318 317 316 315 315
303 305 306 307 308 308 308 308 308 309 309 310 311 310 310 311 313 315 319 316 317 321 323 323 323 323 323 321 322 319 319 317 318 316 316 317 316 316 318 318 317 316 315 315 315
301 301 302 304 306 308 308 308 308 309 309 310 311 311 311 312 313 314 314 321 319 320 323 323 324 323 322 322 320 319 316 317 317 316 317 316 316 316 317 317 316 315 315 315 315
304 302 301 301 303 305 308 309 309 309 309 310 311 313 312 313 313 315 314 315 320 322 322 323 322 322 319 319 318 316 320 318 318 316 316 315 316 316 317 317 316 315 314 315 315
307 306 305 302 300 302 306 308 310 309 313 312 314 311 313 313 314 314 315 315 317 320 322 322 322 317 314 316 319 320 319 318 318 318 315 315 314 314 317 317 317 315 314 315 315
307 307 305 302 302 300 302 307 310 317 317 314 312 312 316 316 317 319 318 316 321 322 319 320 318 317 317 317 319 319 319 319 319 318 317 316 315 317 316 316 316 315 314 315 315
306 305 306 304 302 301 301 305 310 309 310 315 315 315 313 313 314 316 320 321 321 320 318 318 319 318 318 318 318 317 318 318 317 317 316 317 316 315 315 316 316 316 314 315 315
307 306 305 306 305 304 301 304 309 308 311 315 316 315 315 314 315 315 319 322 320 319 318 319 320 319 319 319 320 318 319 318 318 318 315 316 315 316 315 316 317 316 316 315 315
307 307 305 304 306 304 302 304 307 310 313 314 316 317 317 317 316 315 315 322 321 320 318 319 319 320 319 320 319 320 318 319 318 318 317 315 316 315 316 316 316 315 315 315 315
306 307 306 304 305 303 305 305 311 313 308 312 316 317 317 317 316 317 316 321 320 321 319 322 319 319 320 320 318 320 319 318 318 317 316 317 315 315 318 319 316 315 314 315 315
305 306 306 305 304 306 304 307 312 314 316 313 316 316 315 316 316 317 318 319 320 319 319 321 320 319 320 319 318 319 318 315 315 314 315 315 316 316 316 318 318 316 315 315 315
303 306 307 305 304 304 303 305 314 315 313 313 314 315 316 316 316 316 317 317 319 320 320 320 319 319 320 320 317 316 314 316 316 317 318 317 317 317 318 317 317 318 315 316 315
302 305 307 306 305 304 303 309 315 314 313 314 313 315 316 316 316 315 316 318 316 318 319 320 322 319 318 319 318 314 314 315 317 315 315 318 321 320 318 321 321 321 318 315 315
302 303 307 306 305 304 303 310 312 313 313 313 314 315 316 316 316 316 315 317 317 317 321 320 320 319 318 318 318 317 315 314 315 317 318 318 320 321 324 322 319 316 315 315 316
303 303 305 307 305 303 302 307 312 313 313 313 314 313 315 315 316 316 315 316 316 317 317 318 321 319 319 318 316 317 315 317 313 318 319 318 322 323 321 324 321 316 314 315 316
303 304 305 306 305 302 302 303 307 313 313 313 312 313 314 314 315 315 316 317 316 316 317 316 318 319 319 319 318 318 318 318 313 314 316 316 320 318 324 325 324 319 316 317 317
302 304 304 306 304 303 304 304 306 309 313 313 312 312 313 314 314 315 317 316 317 317 317 316 316 319 323 321 321 318 317 319 318 318 319 318 320 320 324 325 326 323 318 317 317
303 303 304 305 306 304 303 304 304 306 311 312 313 313 313 314 315 315 316 316 317 317 315 315 315 317 317 325 325 325 323 319 319 319 324 325 321 320 325 324 324 323 319 318 317
300 303 301 302 304 304 304 304 304 304 306 309 311 311 312 313 313 314 317 316 316 317 317 318 314 317 320 318 325 326 328 324 321 322 323 325 324 324 325 327 324 320 320 318 317
300 301 302 304 304 303 302 303 304 304 306 308 310 311 312 312 312 312 313 314 315 316 318 315 316 316 317 317 322 322 324 326 323 322 324 323 325 324 323 325 326 324 319 317 317
299 301 301 300 304 304 304 304 304 305 303 306 308 311 310 311 310 312 312 313 313 309 314 315 317 315 317 317 317 320 321 326 324 323 325 323 324 322 325 326 326 325 321 318 319
299 301 302 302 305 305 305 305 306 305 306 305 307 307 307 308 309 309 309 309 310 311 309 315 319 319 318 322 321 322 320 325 325 323 323 325 323 322 325 326 326 326 324 323 320
Wind_Speed
14 16 17 15 15 14 16 16 16 16 16 16 18 18 17 18 19 26 33 28 22 17 15 13 15 13 11 7 8 5 3 3 5 3 7 4 3 4 7 11 8 9 5 6 12
17 16 16 16 16 16 17 17 17 16 16 16 17 18 18 18 20 31 35 25 24 20 20 17 15 13 6 5 7 5 3 7 7 6 6 5 7 12 5 6 3 8 9 13 11
18 16 16 17 17 17 18 17 18 17 16 17 16 16 15 15 18 35 26 23 27 24 20 18 8 6 4 6 8 6 5 7 12 15 14 7 5 10 7 4 12 17 19 16 12
19 19 19 18 18 18 18 17 18 17 16 16 17 16 14 11 6 4 8 7 22 24 22 21 16 5 4 5 8 3 13 10 12 17 8 7 7 6 16 11 12 15 15 15 12
22 22 21 20 20 20 19 18 18 18 17 17 17 15 15 12 29 10 6 7 11 25 25 23 19 8 4 6 5 5 5 3 7 11 13 9 8 5 18 13 8 16 17 14 11
25 24 23 22 21 22 21 20 20 19 17 17 17 16 15 11 24 21 31 29 14 21 27 25 22 24 7 7 7 7 6 2 2 4 6 7 2 5 11 12 15 19 19 16 11
25 25 25 24 24 23 23 22 21 20 19 19 18 17 20 34 14 9 10 22 20 13 28 27 24 13 8 5 5 2 3 5 2 4 3 4 3 9 11 18 19 22 19 16 11
25 25 25 25 25 25 24 22 21 21 21 19 18 18 16 21 16 25 26 13 13 17 20 24 20 20 10 7 3 4 5 3 4 5 3 8 10 6 15 23 23 23 20 17 13
27 25 25 25 26 26 25 21 20 21 20 18 15 11 13 13 18 21 22 24 12 12 14 13 7 9 3 3 3 7 3 4 6 9 2 5 9 3 13 28 24 23 20 17 13
27 26 25 24 24 24 24 20 17 17 13 8 8 5 18 10 10 16 16 20 16 13 11 9 6 3 2 3 5 4 3 3 4 3 4 3 13 6 9 26 24 24 22 19 15
25 25 24 23 21 20 19 12 7 4 10 11 7 9 4 2 6 7 13 19 14 11 7 8 4 8 9 6 5 4 3 5 4 5 5 7 10 16 11 19 15 23 25 22 17
26 22 22 22 20 16 13 5 3 4 12 17 30 30 28 25 10 11 14 16 10 6 7 4 12 7 7 4 4 3 3 5 6 3 6 8 10 9 8 13 27 29 28 25 20
26 23 22 22 20 15 10 8 7 9 6 11 26 32 39 24 18 25 12 14 5 7 7 8 4 8 7 5 4 5 3 5 7 1 3 1 7 5 5 7 13 21 27 27 24
27 24 22 20 12 11 8 7 8 6 4 7 9 14 26 20 8 29 21 16 2 13 9 7 6 8 5 5 7 4 8 5 4 2 4 4 5 6 5 6 7 19 29 30 26
29 23 21 17 9 4 4 9 7 6 5 6 7 5 19 23 16 14 27 17 10 7 7 10 8 6 5 9 7 10 4 6 3 4 2 2 2 6 2 7 10 17 29 32 28
27 23 22 20 15 15 10 2 8 4 11 5 7 8 7 10 15 13 19 16 13 7 2 10 10 10 12 8 9 3 3 6 4 4 1 7 7 5 5 8 7 5 27 34 31
27 25 25 22 12 9 10 5 3 7 2 7 7 7 11 6 8 9 13 12 11 8 10 4 5 4 6 5 3 5 6 4 4 3 5 3 3 8 9 9 9 9 26 35 32
26 26 27 25 17 14 5 2 9 9 11 3 5 6 9 8 10 9 8 14 12 7 6 9 9 10 4 8 10 7 9 5 6 3 5 3 5 6 6 7 13 13 19 33 34
24 25 29 28 20 12 7 7 13 7 14 3 3 5 5 7 7 9 17 15 12 12 17 8 8 3 7 5 11 5 4 6 4 1 2 3 7 10 3 5 6 10 20 32 36
26 26 28 26 22 13 3 25 8 7 6 23 8 6 10 7 9 16 14 16 12 9 6 7 3 6 7 5 1 9 7 2 2 2 4 4 4 6 8 5 4 6 18 31 35
22 11 14 30 25 16 9 15 22 11 4 15 21 6 7 8 9 8 7 9 21 9 11 6 6 4 6 7 9 3 3 4 4 4 5 3 6 6 4 9 8 9 23 32 38
23 5 12 37 9 7 16 10 8 24 9 3 2 8 8 7 9 11 12 12 19 14 13 8 7 6 8 2 5 7 10 9 5 5 3 4 7 5 6 9 8 7 19 27 35
9 7 17 39 10 12 15 12 15 13 13 3 3 3 5 7 4 5 5 6 14 17 11 8 3 3 5 3 1 4 5 5 5 4 7 5 6 4 4 3 2 9 15 24 32
6 5 8 22 15 15 17 17 9 25 14 1 3 5 1 5 3 4 2 3 3 4 16 18 6 10 16 6 6 5 5 6 7 5 5 6 4 5 3 4 2 5 12 20 31
8 2 2 5 7 11 7 3 21 8 14 3 3 4 3 5 4 4 2 3 4 3 4 6 8 6 5 10 11 14 9 12 10 9 8 8 9 8 5 5 4 8 13 21 28
8 2 3 3 20 16 8 4 18 20 5 17 5 4 2 3 4 3 3 3 2 7 4 2 4 8 7 10 13 11 17 16 17 3 1 6 5 7 7 8 6 7 19 25 29
9 11 5 1 5 9 13 14 4 3 2 9 5 3 3 3 7 10 12 10 4 1 2 1 4 4 5 5 6 17 16 14 10 5 10 8 10 7 6 8 14 15 18 25 29
Wind_Direction
296 298 308 309 305 305 304 305 309 311 314 314 308 298 289 279 267 258 251 240 237 240 248 268 243 228 214 207 216 191 74 216 247 200 249 212 168 208 201 161 189 196 237 236 188
301 305 301 297 299 299 297 302 305 306 308 308 307 301 295 291 282 259 252 243 238 234 249 248 222 216 195 184 180 147 135 223 200 200 237 218 195 177 188 158 162 181 187 171 186
293 295 294 294 294 293 294 297 299 303 305 306 304 300 298 297 297 268 273 256 239 232 239 239 225 215 208 211 198 189 201 209 236 235 242 214 214 184 166 252 214 203 175 179 196
293 293 292 290 288 288 289 290 292 293 299 301 301 298 292 283 247 331 148 218 222 222 230 229 238 218 204 216 193 177 241 230 264 235 183 190 178 203 188 230 257 231 199 190 204
287 286 287 287 286 286 285 284 285 289 292 294 293 294 289 265 247 234 221 1 213 208 221 227 228 221 221 227 166 193 261 308 247 191 204 203 205 197 217 249 233 193 192 199 209
283 285 288 288 286 284 284 285 286 287 285 286 286 287 273 255 269 252 254 262 273 214 219 223 231 242 255 224 174 225 218 64 153 190 209 169 201 183 236 213 186 195 200 208 211
279 279 281 283 284 284 284 286 289 288 283 281 280 278 261 252 253 275 276 253 254 243 221 231 232 189 226 276 274 97 105 36 263 167 243 139 298 235 225 190 194 198 202 200 199
281 282 280 279 280 281 283 284 288 287 282 280 277 270 250 276 260 250 250 225 233 234 232 237 242 240 256 265 62 88 53 96 279 161 249 159 263 266 222 193 201 198 198 198 198
285 284 282 280 281 281 282 285 290 290 286 278 263 238 263 259 247 249 243 241 229 233 227 221 215 231 241 193 38 14 221 209 310 207 135 177 265 277 211 200 204 199 200 199 198
285 283 283 284 283 284 285 288 291 290 279 236 212 228 250 243 270 263 217 226 231 243 206 204 188 169 68 105 209 233 227 228 242 241 186 223 265 257 228 204 207 201 200 201 205
290 288 287 286 285 288 292 303 283 229 229 211 213 216 195 110 228 242 226 195 173 170 157 167 142 203 202 199 183 195 196 247 266 242 178 235 252 273 220 213 207 206 201 203 206
300 312 298 291 289 292 292 298 86 327 294 253 246 252 245 264 300 261 209 165 169 164 113 83 219 188 197 164 173 160 222 264 274 278 163 271 271 263 189 224 214 211 204 205 198
287 295 303 294 290 288 271 237 234 326 267 263 241 239 240 245 237 253 214 186 138 149 165 185 182 163 169 196 174 198 174 233 239 319 239 151 307 301 268 242 221 226 215 210 204
281 286 296 303 287 268 240 211 225 282 292 270 204 244 210 212 234 243 231 196 143 188 167 208 191 172 168 196 166 254 217 229 267 47 271 133 271 286 284 278 228 215 210 208 201
272 274 287 299 254 254 192 193 173 162 288 246 199 220 198 176 159 210 214 205 162 172 142 213 155 176 173 211 163 232 143 196 228 205 109 270 72 262 352 284 259 218 210 206 201
263 266 270 279 274 248 239 149 156 74 243 269 191 175 120 198 185 165 174 194 205 154 238 202 206 166 197 213 175 166 107 49 55 97 60 235 160 278 221 217 260 193 206 206 196
260 258 260 266 268 241 233 195 127 206 217 216 202 161 176 160 193 161 167 178 180 159 199 168 186 191 151 152 89 96 71 338 338 6 223 108 101 235 255 244 231 230 199 201 192
261 253 249 254 258 237 201 97 218 217 202 289 165 145 179 150 208 184 154 186 209 156 161 180 227 170 178 170 183 181 155 158 230 231 260 139 231 250 229 306 295 273 218 194 187
257 251 245 237 243 228 185 198 223 172 195 231 106 135 201 191 159 172 212 203 185 184 202 174 227 138 166 156 148 177 153 197 138 154 62 243 287 311 268 7 22 132 172 185 186
253 253 241 223 221 195 140 225 219 186 146 202 198 168 186 185 173 191 181 210 205 172 140 194 182 207 199 100 19 166 160 112 18 194 228 278 286 240 300 304 174 162 178 186 187
238 239 241 223 197 173 210 225 222 284 313 185 218 193 215 178 181 194 226 218 192 169 173 134 135 269 110 178 169 124 162 58 124 148 187 235 257 218 224 251 233 196 198 192 188
236 217 199 195 186 196 228 215 292 228 256 287 218 198 196 185 184 200 205 199 185 163 173 185 152 193 199 198 172 208 189 171 163 229 208 185 261 242 262 272 215 200 212 201 198
231 207 202 196 198 214 234 258 254 251 242 307 279 217 195 193 197 177 168 217 171 179 159 170 199 149 328 5 329 168 178 148 120 95 189 186 261 177 256 270 218 204 203 203 199
175 191 160 219 217 212 223 234 261 240 278 99 313 310 141 168 218 153 151 69 78 127 176 160 158 189 221 209 158 183 179 183 156 141 185 217 211 260 185 58 293 175 212 207 202
202 240 195 175 203 222 183 272 216 244 219 153 223 248 207 176 101 126 190 10 90 248 110 142 205 182 198 202 191 212 196 180 191 195 175 215 208 229 180 179 209 185 186 192 201
180 170 184 279 213 221 221 207 235 215 247 227 244 190 3 61 53 101 66 80 72 16 90 7 222 175 217 207 195 215 217 194 208 152 107 155 231 207 178 174 226 187 188 199 203
226 235 332 62 226 208 215 214 242 229 246 218 146 240 46 226 272 273 261 267 256 18 359 335 136 103 227 182 127 245 208 193 204 190 171 198 214 155 179 195 222 235 217 220 214